MAUNA LOA HI US current weather conditions

sailwx.info

Wind from 181 at 3 knots gusting 7

Air temperature 23.9° C
Dewpoint 12.2° C

Last reported at 2014-Aug-29 19:34 UTC.
Time now 2014-Aug-29 20:22 UTC

Location: N 19°28' W 155°22'.
View on Google Maps.

See reports from other nearby stations

  
Tides and Currents Weather Stations Pressure Air Temp Water Temp Dewpoint Dewpoint Depression Visibility Wind Speed Wind Dir Waves Ship Positions
date/time (UTC)wind fromknots sea level pressurealtimeterstation pressurevisibilityair tempwater tempwave heightnotes
2014-Aug-29 19:34 181 3 gusting 7 23.9
2014-Aug-29 18:34 134 3 gusting 10 23.9
2014-Aug-29 17:34 333 2 gusting 7 21.7
2014-Aug-29 16:34 334 3 gusting 8 13.3
2014-Aug-29 15:34 321 4 gusting 6 11.7
2014-Aug-29 14:34 347 3 gusting 7 11.7
2014-Aug-29 13:34 320 4 gusting 6 8.3
2014-Aug-29 12:34 318 1 gusting 5 7.8
2014-Aug-29 11:34 310 2 gusting 5 8.9
2014-Aug-29 10:34 310 2 gusting 4 7.8
2014-Aug-29 09:34 313 2 gusting 3 9.4
2014-Aug-29 08:34 13.3
2014-Aug-29 07:34 12.2
2014-Aug-29 06:34 237 0 gusting 11 12.8
2014-Aug-29 05:34 13.9
2014-Aug-29 04:34 344 6 gusting 12 15.0
2014-Aug-29 03:34 020 6 gusting 10 16.7
2014-Aug-29 02:34 035 6 gusting 11 18.9
2014-Aug-29 01:34 037 5 gusting 10 18.3
2014-Aug-29 00:34 069 4 gusting 10 18.3
2014-Aug-28 23:34 142 3 gusting 9 17.8
2014-Aug-28 22:34 129 2 gusting 13 20.6
2014-Aug-28 21:34 059 6 gusting 16 24.4
2014-Aug-28 20:34 043 6 gusting 13 25.0
2014-Aug-28 19:34 018 6 gusting 14 24.4
2014-Aug-28 18:34 024 4 gusting 12 23.3
2014-Aug-28 17:34 352 5 gusting 11 18.9
2014-Aug-28 16:34 314 5 gusting 11 12.2
2014-Aug-28 15:34 321 3 gusting 12 8.3
2014-Aug-28 14:34 331 6 gusting 12 11.1
2014-Aug-28 13:34 340 5 gusting 12 10.0
2014-Aug-28 12:34 322 6 gusting 10 8.3
2014-Aug-28 11:34 315 4 gusting 5 8.9
2014-Aug-28 10:34 263 0 gusting 11 12.2
2014-Aug-28 09:34 322 6 gusting 12 12.8
2014-Aug-28 08:34 12.2
2014-Aug-28 07:34 12.8
2014-Aug-28 06:34 327 5 gusting 15 13.9
2014-Aug-28 04:34 007 6 gusting 15 12.8
2014-Aug-28 03:34 017 6 gusting 13 13.9
2014-Aug-28 02:34 020 5 gusting 10 15.0
2014-Aug-28 01:34 014 5 gusting 16 14.4
2014-Aug-28 00:34 053 4 gusting 14 18.3
2014-Aug-27 23:34 119 6 gusting 14 21.1
2014-Aug-27 22:34 071 7 gusting 14 25.6
2014-Aug-27 21:34 062 7 gusting 17 23.9
2014-Aug-27 20:34 034 6 gusting 16 24.4